When you browse on this site, cookies collect data to enhance your experience and personalize the content and advertising you see.
Visit our Privacy Policy to learn more. By continuing to use the site, you agree to this use of cookies and data.
  • în România
  • Lista ţărilor
  • Pe 7 zile
  • Temperatura apei
  • Hartă satelitară
  • Meteo pe hartă
  • Widget-uri
  • user-avatar
    Intrare

    Meteo pe oră la Ascheffel

    Astăzi, 24 Aprilie, Miercuri

    Timp Temperatura Precipitaţii Vânt Presiune Umiditate
    00:00 +10°C° 0 mm 6 m/s 751 mmHg 78%
    01:00 +10°C° 0 mm 5 m/s 751 mmHg 81%
    02:00 +10°C° 0 mm 6 m/s 751 mmHg 80%
    03:00 +10°C° 0 mm 6 m/s 751 mmHg 79%
    04:00 +10°C° 0 mm 7 m/s 750 mmHg 77%
    05:00 +10°C° 0.2 mm 7 m/s 750 mmHg 80%
    06:00 +9°C° 0.2 mm 7 m/s 750 mmHg 83%
    07:00 +9°C° 0 mm 6 m/s 750 mmHg 87%
    08:00 +10°C° 0.4 mm 6 m/s 750 mmHg 87%
    09:00 +10°C° 0.4 mm 6 m/s 750 mmHg 87%
    10:00 +11°C° 0.4 mm 6 m/s 751 mmHg 87%
    11:00 +14°C° 0 mm 6 m/s 751 mmHg 81%
    12:00 +16°C° 0 mm 6 m/s 751 mmHg 75%
    13:00 +19°C° 0 mm 6 m/s 751 mmHg 68%
    14:00 +20°C° 0 mm 6 m/s 751 mmHg 67%
    15:00 +20°C° 0 mm 6 m/s 751 mmHg 66%
    16:00 +21°C° 0 mm 6 m/s 751 mmHg 65%
    17:00 +20°C° 0 mm 5 m/s 751 mmHg 70%
    18:00 +19°C° 0 mm 5 m/s 751 mmHg 74%
    19:00 +17°C° 0 mm 5 m/s 751 mmHg 78%
    20:00 +16°C° 0 mm 5 m/s 751 mmHg 79%
    21:00 +15°C° 0 mm 5 m/s 751 mmHg 79%
    22:00 +15°C° 0 mm 5 m/s 751 mmHg 79%
    23:00 +14°C° 0 mm 6 m/s 751 mmHg 79%

    Mâine, 25 Aprilie, Joi

    Timp Temperatura Precipitaţii Vânt Presiune Umiditate
    00:00 +14°C° 0 mm 6 m/s 751 mmHg 79%
    01:00 +14°C° 0 mm 6 m/s 751 mmHg 79%
    02:00 +13°C° 0.2 mm 6 m/s 752 mmHg 84%
    03:00 +13°C° 0.2 mm 5 m/s 752 mmHg 89%
    04:00 +12°C° 0.2 mm 5 m/s 752 mmHg 93%
    05:00 +12°C° 0 mm 4 m/s 752 mmHg 91%
    06:00 +12°C° 0 mm 3 m/s 753 mmHg 89%
    07:00 +13°C° 0 mm 2 m/s 753 mmHg 87%
    08:00 +14°C° 0 mm 2 m/s 754 mmHg 80%
    09:00 +16°C° 0 mm 3 m/s 754 mmHg 74%
    10:00 +17°C° 0 mm 3 m/s 755 mmHg 68%
    11:00 +18°C° 0 mm 3 m/s 755 mmHg 62%
    12:00 +20°C° 0 mm 3 m/s 755 mmHg 56%
    13:00 +21°C° 0 mm 3 m/s 755 mmHg 50%
    14:00 +21°C° 0 mm 3 m/s 755 mmHg 51%
    15:00 +21°C° 0 mm 3 m/s 755 mmHg 51%
    16:00 +21°C° 0 mm 3 m/s 755 mmHg 52%
    17:00 +20°C° 0 mm 3 m/s 755 mmHg 59%
    18:00 +18°C° 0 mm 3 m/s 755 mmHg 67%
    19:00 +17°C° 0 mm 3 m/s 755 mmHg 74%
    20:00 +15°C° 0 mm 4 m/s 755 mmHg 74%
    21:00 +14°C° 0 mm 4 m/s 755 mmHg 75%
    22:00 +13°C° 0 mm 4 m/s 755 mmHg 75%
    23:00 +13°C° 0 mm 5 m/s 755 mmHg 77%

    Poimâine, 26 Aprilie, Vineri

    Timp Temperatura Precipitaţii Vânt Presiune Umiditate
    00:00 +13°C° 0 mm 5 m/s 755 mmHg 79%
    01:00 +13°C° 0 mm 5 m/s 755 mmHg 81%
    02:00 +12°C° 0 mm 5 m/s 755 mmHg 81%
    03:00 +12°C° 0 mm 5 m/s 755 mmHg 81%
    04:00 +12°C° 0 mm 5 m/s 755 mmHg 81%
    05:00 +12°C° 0 mm 4 m/s 755 mmHg 80%
    06:00 +12°C° 0 mm 3 m/s 755 mmHg 79%
    07:00 +13°C° 0 mm 2 m/s 755 mmHg 78%
    08:00 +14°C° 0 mm 2 m/s 755 mmHg 76%
    09:00 +15°C° 0 mm 2 m/s 755 mmHg 74%
    10:00 +16°C° 0 mm 1 m/s 755 mmHg 71%
    11:00 +16°C° 0.2 mm 2 m/s 755 mmHg 75%
    12:00 +15°C° 0.2 mm 2 m/s 755 mmHg 78%
    13:00 +14°C° 0.2 mm 3 m/s 755 mmHg 82%
    14:00 +12°C° 0.5 mm 4 m/s 755 mmHg 85%
    15:00 +10°C° 0.5 mm 5 m/s 755 mmHg 89%
    16:00 +8°C° 0.5 mm 6 m/s 755 mmHg 92%
    17:00 +8°C° 0.1 mm 6 m/s 755 mmHg 91%
    18:00 +8°C° 0.1 mm 5 m/s 756 mmHg 91%
    19:00 +8°C° 0.1 mm 5 m/s 756 mmHg 90%
    20:00 +8°C° 0.1 mm 4 m/s 756 mmHg 91%
    21:00 +8°C° 0.1 mm 3 m/s 756 mmHg 92%
    22:00 +8°C° 0.1 mm 3 m/s 756 mmHg 94%
    23:00 +8°C° 0 mm 3 m/s 756 mmHg 94%

    27 Aprilie, Sâmbătă

    Timp Temperatura Precipitaţii Vânt Presiune Umiditate
    00:00 +7°C° 0 mm 2 m/s 756 mmHg 94%
    01:00 +7°C° 0 mm 2 m/s 756 mmHg 94%
    02:00 +7°C° 0 mm 2 m/s 756 mmHg 93%
    03:00 +7°C° 0 mm 2 m/s 756 mmHg 92%
    04:00 +6°C° 0 mm 2 m/s 756 mmHg 91%
    05:00 +7°C° 0 mm 2 m/s 756 mmHg 91%
    06:00 +8°C° 0 mm 2 m/s 756 mmHg 91%
    07:00 +8°C° 0 mm 2 m/s 756 mmHg 90%
    08:00 +10°C° 0 mm 2 m/s 756 mmHg 86%
    09:00 +12°C° 0 mm 2 m/s 756 mmHg 81%
    10:00 +14°C° 0 mm 2 m/s 756 mmHg 77%
    11:00 +14°C° 0.1 mm 2 m/s 756 mmHg 72%
    12:00 +15°C° 0.1 mm 2 m/s 756 mmHg 67%
    13:00 +16°C° 0.1 mm 2 m/s 756 mmHg 62%
    14:00 +16°C° 0.1 mm 2 m/s 756 mmHg 62%
    15:00 +16°C° 0.1 mm 2 m/s 756 mmHg 62%
    16:00 +16°C° 0.1 mm 2 m/s 756 mmHg 62%
    17:00 +15°C° 0.1 mm 2 m/s 756 mmHg 69%
    18:00 +14°C° 0.1 mm 2 m/s 756 mmHg 76%
    19:00 +13°C° 0.1 mm 2 m/s 756 mmHg 83%
    20:00 +12°C° 0 mm 1 m/s 756 mmHg 86%
    21:00 +10°C° 0 mm 1 m/s 757 mmHg 89%
    22:00 +9°C° 0 mm 1 m/s 757 mmHg 92%
    23:00 +9°C° 0 mm 1 m/s 757 mmHg 91%

    28 Aprilie, Duminică

    Timp Temperatura Precipitaţii Vânt Presiune Umiditate
    00:00 +9°C° 0 mm 1 m/s 758 mmHg 90%
    01:00 +9°C° 0 mm 1 m/s 758 mmHg 90%
    02:00 +8°C° 0 mm 2 m/s 758 mmHg 90%
    03:00 +7°C° 0 mm 2 m/s 758 mmHg 90%
    04:00 +7°C° 0 mm 2 m/s 758 mmHg 90%
    05:00 +8°C° 0 mm 2 m/s 759 mmHg 88%
    06:00 +8°C° 0 mm 2 m/s 759 mmHg 86%
    07:00 +9°C° 0 mm 2 m/s 760 mmHg 84%
    08:00 +10°C° 0 mm 2 m/s 760 mmHg 77%
    09:00 +13°C° 0 mm 2 m/s 760 mmHg 71%
    10:00 +14°C° 0 mm 2 m/s 761 mmHg 65%
    11:00 +15°C° 0 mm 2 m/s 761 mmHg 63%
    12:00 +14°C° 0 mm 3 m/s 761 mmHg 62%
    13:00 +16°C° 0 mm 3 m/s 761 mmHg 61%
    14:00 +16°C° 0 mm 3 m/s 761 mmHg 61%
    15:00 +15°C° 0 mm 4 m/s 761 mmHg 62%
    16:00 +15°C° 0 mm 4 m/s 761 mmHg 62%
    17:00 +13°C° 0 mm 3 m/s 762 mmHg 68%
    18:00 +12°C° 0 mm 3 m/s 762 mmHg 73%
    19:00 +11°C° 0 mm 3 m/s 762 mmHg 79%
    20:00 +10°C° 0 mm 3 m/s 763 mmHg 85%
    21:00 +8°C° 0 mm 3 m/s 763 mmHg 90%
    22:00 +7°C° 0 mm 3 m/s 763 mmHg 96%
    23:00 +7°C° 0 mm 3 m/s 764 mmHg 96%

    29 Aprilie, Luni

    Timp Temperatura Precipitaţii Vânt Presiune Umiditate
    00:00 +5°C° 0 mm 3 m/s 764 mmHg 96%
    01:00 +6°C° 0 mm 2 m/s 764 mmHg 96%
    02:00 +6°C° 0 mm 2 m/s 764 mmHg 96%
    03:00 +6°C° 0 mm 2 m/s 764 mmHg 96%
    04:00 +6°C° 0 mm 2 m/s 764 mmHg 96%
    05:00 +5°C° 0 mm 3 m/s 764 mmHg 94%
    06:00 +7°C° 0 mm 3 m/s 764 mmHg 91%
    07:00 +8°C° 0 mm 3 m/s 764 mmHg 89%
    08:00 +9°C° 0 mm 3 m/s 765 mmHg 87%
    09:00 +10°C° 0 mm 3 m/s 765 mmHg 85%
    10:00 +11°C° 0 mm 3 m/s 765 mmHg 82%
    11:00 +10°C° 0.2 mm 3 m/s 765 mmHg 85%
    12:00 +10°C° 0.2 mm 3 m/s 765 mmHg 88%
    13:00 +8°C° 0.2 mm 4 m/s 765 mmHg 91%
    14:00 +8°C° 0.3 mm 4 m/s 765 mmHg 90%
    15:00 +7°C° 0.3 mm 4 m/s 765 mmHg 90%
    16:00 +7°C° 0.3 mm 4 m/s 765 mmHg 90%
    17:00 +7°C° 0.4 mm 4 m/s 765 mmHg 90%
    18:00 +8°C° 0.4 mm 3 m/s 765 mmHg 90%
    19:00 +8°C° 0.4 mm 3 m/s 765 mmHg 90%
    20:00 +6°C° 0 mm 4 m/s 765 mmHg 89%
    21:00 +6°C° 0 mm 4 m/s 765 mmHg 89%
    22:00 +5°C° 0 mm 4 m/s 766 mmHg 89%
    23:00 +5°C° 0 mm 5 m/s 766 mmHg 89%
    Arată mai mult